Regional Weather Roundup
Issued by NWS Wakefield, VA

Home | Current Version | Previous Version | Text Only | Print | Product List | Glossary On
Versions: 1 2 3 4 5 6 7 8 9 10 11 12 13 14 15 16 17 18 19 20 21 22 23 24 25 26 27 28 29 30 31 32 33 34 35 36 37 38 39 40 41 42 43 44 45 46 47 48
000
ASUS41 KAKQ 311610
RWRAKQ

REGIONAL WEATHER ROUNDUP
NATIONAL WEATHER SERVICE WAKEFIELD VA
1100 AM EST SAT JAN 31 2015

Note: "fair" indicates few or no clouds below 12,000 feet with no
significant weather and/or obstructions to visibility. * = Denotes
station may not report precipitation (e.g., rain,snow,etc.),
thunder or fog.

VAZ042-051-052>054-056-311700-
NORTHERN VIRGINIA

CITY           SKY/WX    TMP DP  RH WIND       PRES   REMARKS
WASH NATIONAL  SUNNY     29   3  33 N15G22    30.37R WCI  18
DULLES         SUNNY     24   3  40 NW17G28   30.34F WCI  11
FORT BELVOIR   SUNNY     27   2  34 NW14G23   30.37R WCI  15
QUANTICO       SUNNY     29   3  33 N15G25    30.38S WCI  18
FREDERICKSBRG* SUNNY     30   3  31 NW9       30.36S
STAFFORD*      SUNNY     29   0  28 CALM      30.40S
WARRENTON      SUNNY     32  11  42 NW6       30.34R
CULPEPER*      SUNNY     30   0  27 N3        30.35R
MANASSAS*      SUNNY     27   7  43 MISG      30.36S
LEESBURG*      SUNNY     27   9  46 N14       30.35S WCI  15
WINCHESTER     SUNNY     27   5  39 NW7       30.33S
FRONT ROYAL*   FAIR      28   5  37 NW6       30.31S
LURAY*         FAIR      32   5  32 CALM      30.31R
$$

VAZ048-049-060>072-079>083-311700-
CENTRAL AND SOUTH CENTRAL VIRGINIA

CITY           SKY/WX    TMP DP  RH WIND       PRES   REMARKS
RICHMOND       SUNNY     30   6  36 W5        30.36S
CHESTERFIELD*  FAIR      34   3  27 W8        30.37S
PETERSBURG*    SUNNY     34   5  30 W7        30.38S
HANOVER        SUNNY     29   6  38 W5        30.38R
TAPPAHANNOCK*  SUNNY     29  -4  23 NW8       30.36S
QUINTON*       FAIR      29   6  38 W5        30.37S
CHARLOTTSVILLE SUNNY     31   1  28 S7        30.32R
GORDONSVILLE*  FAIR      30   6  37 CALM      30.33S
ORANGE*        SUNNY     32   5  32 CALM      30.35S
LOUISA*        SUNNY     30   7  37 W3        30.33S
BUMPASS*       FAIR      29   4  34 W7        30.35S
FARMVILLE*     SUNNY     37   8  30 S6        30.34S
CREWE*         FAIR      34   3  27 SW3       30.35S
FORT PICKETT*  FAIR      32   6  33 NW7       30.36R
CHASE CITY*    FAIR      35   8  32 W7        30.36S
CLARKSVILLE*   FAIR      34   9  35 W6        30.36S
SOUTH HILL*    SUNNY     32   6  32 W5        30.42S
LAWRENCEVILLE* FAIR      33   7  34 W3        30.36S
EMPORIA*       SUNNY     34   9  35 W6        30.39S
$$

VAZ088>098-311700-
SOUTHEAST VIRGINIA

CITY           SKY/WX    TMP DP  RH WIND       PRES   REMARKS
NORFOLK        SUNNY     31   0  26 NW12G21   30.35R WCI  22
VIRGINIA BEACH MOSUNNY   33   5  30 NW21G26   30.34R WCI  21
NORFOLK NAVAL  MOSUNNY   34   7  32 NW16      30.37R WCI  24
WEST POINT*    SUNNY     33  -4  20 NW9G17    30.38S
SALUDA*        FAIR      28   2  32 NW15G24   30.35R WCI  16
NEWPORT NEWS   SUNNY     33   5  30 W14       30.36R WCI  23
LANGLEY AFB    SUNNY     31   1  27 NW15      30.35R WCI  20
FORT EUSTIS    SUNNY     30  10  43 NW13      30.35R WCI  20
WILLIAMSBURG*    N/A     36   9  32 NW10G17   30.38R
HR EXEC AP*    FAIR      30   9  40 NW9G17    30.39S
FRANKLIN*      SUNNY     31   7  36 W10       30.39S WCI  23
WAKEFIELD      SUNNY     32   6  33 VRB6      30.38R
$$

VAZ020-022-025-037-045-311700-
WEST CENTRAL AND SOUTHWEST VIRGINIA

CITY           SKY/WX    TMP DP  RH WIND       PRES   REMARKS
STAUNTON*      SUNNY     28   2  34 CALM      30.31S
WAYNESBORO*    FAIR      29  -1  27 SW5       30.27S
HOT SPRINGS VA SUNNY     20   1  43 W14G21    30.12R WCI   7
LYNCHBURG      SUNNY     32   4  30 VRB6      30.33S
DANVILLE       SUNNY     35   7  31 W9        30.38R
SOUTH BOSTON*  FAIR      35   4  27 W5        30.37S
MARTINSVILLE   MOSUNNY   36   8  32 CALM      30.38S
ROANOKE        MOSUNNY   33   8  35 SW10      30.33R WCI  25
BLACKSBURG     SUNNY     28   8  42 W10G18    30.31R WCI  19
DUBLIN*        SUNNY     34   6  31 W8        30.31S
MARION*        SUNNY     30  11  45 SW13      30.33R WCI  20
HILLSVILLE*    SUNNY     29   3  32 NW15      30.26S WCI  18
RICHLANDS*     FAIR      26  11  54 CALM      30.32R
WISE*          SUNNY     32   5  32 SW3       30.33R
ABINGDON*      MOSUNNY   32  14  47 W5        30.35S
$$

MDZ021>025-VAZ099-100-311700-
SOUTHERN MARYLAND AND THE DELMARVA PENINSULA

CITY           SKY/WX    TMP DP  RH WIND       PRES   REMARKS
PATUXENT RIVER SUNNY     28   2  32 NW21G29   30.33R WCI  15
BAY BRIDGE APT   N/A     27   5  39 NW10G17   30.33S WCI  17
LEONARDTOWN    SUNNY     28   0  29 W12G23      N/A  WCI  18
DOVER          SUNNY     24   2  38 NW23G29   30.28S WCI   8
GEORGETOWN     SUNNY     25   2  37 NW10G26   30.28S WCI  15
EASTON         SUNNY     28  10  47 NW17G24   30.35R WCI  16
CAMBRIDGE      SUNNY     30   9  40 NW12G21   30.31S WCI  21
SALISBURY      SUNNY     29   6  38 NW17G26   30.29R WCI  17
OCEAN CITY     SUNNY     27   3  35 N22G29    30.27S WCI  13
WALLOPS ISLAND SUNNY     28   8  43 NW20G25   30.30R WCI  15
ACCOMACK*      SUNNY     28  10  47 NW18G26   30.31S WCI  16
$$

NCZ012>017-030>032-311700-
NORTH CENTRAL AND EASTERN NORTH CAROLINA

CITY           SKY/WX    TMP DP  RH WIND       PRES   REMARKS
ROANOKE RAPIDS FAIR      36  10  35 W7        30.37S
RALEIGH        PTSUNNY   37   5  26 W10       30.38R
ELIZABETH CITY SUNNY     33   9  36 NW16G25   30.37R WCI  23
AHOSKIE*       SUNNY     34   5  30 N6        30.38F
EDENTON*       SUNNY     35  10  36 N15       30.37S WCI  25
CURRITUCK*     SUNNY     32   3  29 NW15G22   30.36S WCI  21
KILL DEVIL HLS SUNNY     31   9  38 NW10G20   30.33R WCI  23
MANTEO         SUNNY     32  10  40 NW15G25   30.35R WCI  22
CAPE HATTERAS  SUNNY     34  13  41 N8G22     30.33S
TARBORO*       FAIR      37   9  31 N8        30.39R
GOLDSBORO      SUNNY     28  14  54 NW6       30.30R
WASHINGTON     SUNNY     35   8  32 NW10      30.37S
GREENVILLE     SUNNY     37   9  30 N8        30.38R
NEW BERN       SUNNY     40  10  29 NW9       30.38R
WILMINGTON     SUNNY     40   9  28 NW8       30.38F
$$

VAZ048-311700-
ELSEWHERE

CITY           SKY/WX    TMP DP  RH WIND       PRES   REMARKS
HARRISBURG PA  MOSUNNY   19   5  54 NW18      30.31S WCI   4
BALTIMORE      SUNNY     25   3  38 NW14G23   30.32S WCI  13
ANNAPOLIS      SUNNY     25   6  44 NW12      30.33R WCI  14
ANDREWS AFB    SUNNY     25   2  36 NW13G22   30.33R WCI  14
PHILADELPHIA   SUNNY     21  -2  36 NW20G29   30.28S WCI   6
HENDERSON NC   MOSUNNY   36   2  24 NW7       30.37R
GREENSBORO     PTSUNNY   39   4  23 NW7       30.35R
ROCKY MOUNT    SUNNY     37   7  28 NW10      30.38R
$$

VAZ100-311700-
MARINE

STATION/POSITION TIME  TEMP    WIND        PRES    WAVE   SWELL
                       AIR SEA DIR/SP/G            HT/PER HT/PER
                 (UTC) (F)     (DEG/KT/KT) (MB)    (FT/S) (FT/S)
BRANDYWINE LGT   1600   20 35  340/ 22/ 31 1024.8R
CAPE MAY NJ      1600   21                 1024.3R
LEWES DE         1600   22     320/ 22/ 27 1025.0R
15NM E FENWICK I 1600   23 39              1023.4R   7/ 6
OCEAN-CITY-INLET 1600   25 36  340/ 15/ 24 1024.6F
WACHAPREAGUE VA  1600   27 34  330/  8/ 17 1026.3R
THOMAS POINT MD  1600   24 34  330/ 14/ 17 1028.0R
GOOSES REEF MD   1600   26 35  VRB 16/ 19  1026.2S   2/ 3
COVE POINT MD    1600   24     350/ 20/ 24 1026.9R
SOLOMONS ISLAND  1600      36                N/A
BISHOPS HEAD MD  1600   26 30  320/ 18/ 22 1026.3R
PINEY POINT MD   1600          330/ 19/ 22   N/A
POTOMAC MD       1600   27     320/ 17/ 23 1026.2R
CAMBRIDGE MD     1600   24 32  310/ 15/ 19 1026.6F
LEWISETTA VA     1600   26 34  330/ 15/ 20 1027.6S
RAPPAHANNOCK LGT 1600          310/ 21/ 23 1027.5S
STINGRAY PT      1600   29 37  330/ 17/ 23 1027.5S   2/ 2
YORK RVR RNG VA  1600   29     340/ 16/ 21 1027.2R
YORKTOWN VA      1600   28 38  310/ 16/ 20 1027.9R
JAMESTOWN VA     1600   27 39  300/ 12/ 16   N/A     1
DOMINION TERM VA 1600   27     310/ 12/ 16 1028.0R
KIPTOPEKE VA     1600      40  330/ 21/ 24   N/A
CHES BAY BRIDGE  1600   28 38  310/ 20/ 24 1027.5R
CAPE HENRY VA    1600   27     310/ 20/ 25 1026.3S
CHESAPEAKE LGHT  1500   26     330/ 23/ 25 1027.0R
WILLOUBY STN VA  1600   29     330/ 16/ 20 1028.4R
S CRANEY ISL VA  1600          300/ 11/ 17 1028.1R
CAPE HENRY BUOY  1500      42                N/A     5/ 4
1ST LANDING BUOY 1600   29 39  310/ 17/ 23 1027.2R   3/ 3
CAPE CHARLES BUO 1600      39                N/A     4/ 3   2/ 8
OFFSHORE WE BUOY 1600      43                N/A     7/ 8   3/ 8
64NM E OF VA BCH 1600   30 48  330/ 23/ 29 1024.8R  10/ 9   5/ 9
DUCK PIER NC     1600   29 40  330/ 22/ 28 1026.1R
44100 DUCK FRF   1600      43                N/A     7/ 6   2/11
44056 DUCK FRF   1600      41                N/A     6/ 7   2/11
OREGON INLET NC  1600   30 40  310/ 18/ 26 1027.3R
HATTERAS NC      1600   32 40  340/ 26/ 30 1027.3F



USA.gov is the U.S. government's official web portal to all federal, state and local government web resources and services.